EHI
17 16 14 13 17 26 33 34 33 33 31 29 27 24 21 17 14 13 13 13 10 7 6 4 5 6 6 5 4 4 5 5 4 2 3 6 10 13 13 12 13 13 11
19 20 19 18 22 32 37 36 35 34 32 30 29 27 23 17 13 13 15 13 10 8 6 6 7 7 8 7 5 4 4 4 4 3 3 4 7 9 10 11 13 13 11
24 27 27 26 29 36 41 40 40 39 35 31 28 28 26 20 15 16 18 14 11 9 9 11 11 9 8 8 7 6 4 4 3 3 3 2 4 5 6 8 10 12 13
32 36 37 35 33 37 42 45 47 46 39 32 27 26 26 22 18 20 22 19 13 11 13 14 13 11 9 7 7 6 5 4 3 3 3 3 3 4 4 6 8 11 12
39 42 43 40 36 37 44 52 56 52 44 36 29 26 24 21 20 23 25 22 17 15 15 14 13 11 9 6 5 4 4 4 4 3 4 4 4 4 6 7 8 9 10
35 40 45 44 39 38 46 57 62 58 49 40 34 31 27 24 25 28 27 23 19 18 18 16 15 12 8 5 4 3 4 4 4 4 4 4 4 5 6 6 6 7 7
29 37 48 49 43 42 50 60 64 61 52 44 41 38 34 31 31 32 30 24 20 22 24 23 22 17 10 6 6 5 5 5 5 5 4 4 5 6 6 6 7 7 6
25 36 48 50 45 45 52 61 63 61 55 50 47 44 40 35 32 29 27 24 20 23 29 31 28 22 14 11 11 10 8 8 8 7 7 6 6 6 7 8 9 8 7
20 30 43 48 46 46 52 58 61 61 58 54 51 48 44 39 32 25 22 22 20 21 28 32 29 24 20 18 17 15 14 13 12 11 10 10 10 9 10 10 11 9 7
13 21 35 43 44 44 49 54 58 61 59 54 50 49 48 43 35 27 24 25 24 23 27 30 29 26 24 24 23 21 19 17 16 15 15 14 12 11 12 13 12 10 7
10 15 28 40 40 38 42 49 54 58 57 53 49 49 49 46 41 35 32 32 29 28 30 32 31 29 27 27 27 24 21 20 20 19 18 16 15 14 13 13 13 11 9
12 15 27 39 40 38 40 44 49 54 56 54 52 51 51 49 46 42 41 39 36 32 32 33 33 31 29 29 28 26 23 23 23 22 22 19 17 16 14 13 13 12 10
19 22 34 45 47 46 45 44 45 49 53 54 54 54 55 53 49 46 45 44 40 35 33 32 32 31 30 29 29 28 27 26 25 25 24 22 20 18 15 12 12 11 9
30 34 45 53 55 54 53 49 46 46 51 54 55 57 58 57 52 48 46 45 42 38 35 33 32 31 28 27 27 28 27 27 27 26 25 23 21 18 14 10 9 9 8
39 44 51 57 60 59 58 54 50 48 52 56 57 57 58 57 53 48 46 45 41 37 35 33 31 29 25 21 22 24 24 24 25 26 26 23 20 15 11 7 6 6 7
45 47 51 55 59 60 58 56 52 50 53 56 56 56 56 54 50 46 45 43 39 35 33 31 29 26 22 18 17 20 21 21 24 26 26 23 18 12 8 5 4 4 5
49 49 48 49 54 56 55 54 53 54 55 56 56 56 55 53 50 46 44 42 39 34 30 29 27 25 23 18 15 16 19 21 24 25 25 22 17 12 10 7 6 6 5
49 47 43 41 44 49 52 52 55 58 58 58 56 55 54 53 51 49 46 45 42 37 32 29 27 25 22 18 13 13 17 22 25 26 26 24 19 14 10 10 11 10 8
43 42 39 36 40 46 51 52 55 58 58 57 56 55 54 53 51 50 49 47 45 40 34 29 25 23 20 14 9 9 16 22 26 27 26 23 18 12 8 10 14 13 9
37 38 38 38 43 50 52 52 53 55 56 55 55 55 54 53 51 50 48 47 44 38 32 27 23 21 18 13 7 7 15 21 23 25 24 19 13 8 5 8 11 10 8
35 38 40 42 47 50 51 50 51 53 54 55 56 56 55 52 49 47 45 43 39 34 30 26 23 20 17 14 7 6 11 15 17 18 19 15 8 3 3 5 6 6 5
35 38 42 44 46 46 46 48 50 52 53 54 55 56 52 47 45 44 42 40 37 32 28 25 24 21 18 14 7 3 5 8 10 12 12 10 5 1 1 2 3 3 3
34 37 41 42 42 42 42 45 47 50 51 52 52 51 48 45 43 42 40 38 35 30 26 24 23 20 18 14 8 3 1 3 6 8 7 5 3 1 1 1 2 3 3
33 35 38 38 37 37 39 41 45 48 49 49 47 46 44 44 43 42 38 34 31 29 26 23 21 18 16 13 9 5 3 3 4 6 5 3 2 1 2 2 2 3 3
34 35 37 37 36 36 37 41 46 48 48 46 43 40 38 38 39 37 30 25 23 22 21 19 17 15 12 10 9 8 8 6 5 6 5 4 3 3 3 3 3 4 4
36 36 37 37 37 36 38 42 46 48 46 43 39 34 32 33 34 30 22 16 14 13 13 14 14 11 7 6 7 9 10 8 6 6 6 6 5 4 3 3 4 5 5
Wind_Speed
12 12 10 10 10 9 7 5 5 4 2 1 1 1 1 1 2 2 2 2 2 2 1 2 2 1 2 1 1 1 1 1 1 1 1 0 1 2 2 2 2 2 3
12 12 11 10 10 9 8 6 5 5 3 2 1 1 1 1 2 3 3 2 2 1 1 2 1 1 1 1 1 1 1 1 0 1 1 0 1 1 1 2 2 3 3
14 12 11 9 9 9 9 7 6 6 4 3 2 1 1 1 2 2 2 1 2 1 2 2 1 1 1 1 0 0 0 1 1 0 0 1 1 0 1 1 2 2 2
13 12 11 9 8 9 8 7 6 5 4 3 2 2 2 1 1 2 2 2 1 2 2 1 1 1 1 1 1 0 1 1 1 1 1 1 2 1 0 1 1 2 2
14 13 12 10 9 9 9 8 7 5 5 4 3 2 1 1 1 1 2 2 2 1 1 2 2 1 1 1 1 1 1 1 1 1 1 1 0 1 1 1 0 1 2
13 13 12 10 9 9 9 8 8 6 5 4 4 3 2 1 1 1 1 1 1 1 1 2 1 1 1 1 1 1 1 1 2 2 1 1 0 0 1 1 1 1 1
12 13 12 11 9 9 9 9 9 7 6 5 4 4 3 3 2 1 1 1 1 2 2 2 1 1 0 0 0 0 1 1 1 1 2 2 1 0 2 2 2 1 1
12 13 13 12 10 9 8 9 9 8 7 6 4 3 3 3 2 2 1 1 1 1 2 2 2 1 1 1 1 1 0 1 1 1 1 1 1 1 1 2 2 1 0
12 12 13 12 11 9 8 9 9 8 7 6 5 4 3 2 2 2 1 0 1 1 2 2 2 1 1 1 1 1 1 1 1 1 1 0 1 0 0 1 1 2 1
12 13 12 12 11 10 9 9 9 8 7 7 6 5 4 3 2 1 2 1 1 1 2 2 2 1 1 1 1 1 1 1 1 1 1 1 1 1 1 0 0 1 1
9 11 11 11 11 11 10 9 9 9 8 7 6 5 5 4 3 2 2 2 1 1 1 1 1 1 1 1 0 0 0 0 0 1 1 0 0 1 1 1 0 1 1
8 9 10 11 10 10 10 9 9 9 8 7 6 6 5 4 4 3 2 2 2 2 1 1 1 1 1 0 0 0 1 0 1 1 1 1 0 0 1 1 1 1 1
6 8 8 8 8 8 8 9 9 8 8 8 7 6 5 4 4 3 3 2 2 2 1 1 1 0 0 0 0 0 0 1 1 1 1 1 1 1 1 0 0 0 1
6 6 6 7 7 6 6 7 7 7 7 7 7 6 5 5 4 3 3 2 2 2 1 1 1 1 0 1 1 0 0 0 1 1 1 1 1 1 1 0 0 0 1
7 7 6 6 7 7 6 6 6 6 6 6 6 6 5 5 4 4 3 3 2 2 1 1 0 0 0 1 2 1 0 0 0 1 1 1 2 3 1 1 1 1 0
7 7 6 6 5 6 6 5 5 6 6 6 6 6 5 5 4 4 3 3 2 2 1 1 1 1 1 3 3 2 1 1 0 0 0 1 2 2 2 3 3 2 1
7 6 6 5 4 5 5 5 5 6 6 6 5 5 5 5 5 4 4 3 2 2 1 1 1 1 2 3 4 3 1 1 1 1 1 1 1 1 1 2 2 2 2
6 6 6 6 5 5 5 5 5 6 6 5 5 5 6 5 5 4 4 3 2 2 2 1 1 1 1 2 2 3 2 0 0 1 1 1 1 2 1 1 2 2 2
5 5 4 5 5 5 4 5 5 5 6 5 5 5 5 5 5 4 4 3 3 2 2 2 1 1 1 1 1 2 1 1 1 0 0 1 1 2 1 1 1 2 2
4 4 4 4 4 5 4 4 5 5 5 5 4 4 4 5 4 4 4 3 3 3 3 2 2 2 2 1 0 1 1 1 0 0 1 2 1 2 1 1 1 1 1
4 4 4 4 4 5 4 3 4 4 3 3 4 4 4 4 4 4 3 3 3 3 3 3 2 2 3 3 2 1 1 0 0 0 0 1 2 2 1 0 1 1 1
4 5 4 4 4 5 5 3 3 3 3 3 3 4 4 3 4 4 3 3 3 3 3 3 3 2 2 3 3 2 1 0 0 0 1 2 2 2 2 1 1 0 1
3 3 5 4 3 4 4 4 3 3 3 3 3 3 3 3 3 4 4 4 3 3 3 3 3 2 2 2 4 4 2 1 0 1 1 1 2 2 2 3 2 2 2
3 3 4 4 4 4 3 3 4 4 4 4 3 3 3 3 4 3 3 3 3 3 3 2 2 2 2 2 2 2 2 2 1 1 1 2 2 2 2 1 2 2 2
3 3 2 3 5 4 3 3 4 4 4 4 3 3 3 3 3 2 0 1 1 0 1 2 2 2 2 2 3 3 2 2 1 1 2 2 2 2 2 2 2 2 2
3 3 2 3 4 4 4 3 3 3 3 4 3 3 3 3 3 3 2 4 2 3 2 1 1 1 2 4 4 3 3 2 2 1 2 2 2 2 2 2 2 2 2
Wind_Direction
158 155 156 150 145 141 142 144 146 134 142 124 133 128 118 113 103 103 95 98 86 72 43 44 76 52 68 84 103 93 119 154 152 120 82 82 153 145 162 162 143 152 162
163 158 162 162 155 148 150 151 153 149 158 147 151 178 122 130 117 91 99 98 100 74 101 75 73 81 88 79 60 62 356 290 163 143 142 108 42 4 184 165 157 150 131
168 164 166 166 163 157 160 161 161 152 163 160 169 169 124 45 84 106 114 79 89 87 51 82 64 45 67 78 349 42 312 283 296 265 116 136 120 4 294 139 115 111 110
163 162 165 167 166 160 158 153 152 152 156 161 178 180 158 137 132 124 122 127 107 97 104 96 84 44 59 58 322 54 297 281 309 338 344 85 131 154 104 13 69 104 105
163 164 167 165 169 165 160 155 151 155 159 167 173 176 169 147 116 109 115 131 134 134 112 107 95 83 68 41 339 2 350 351 341 327 326 6 136 183 145 151 98 93 99
163 163 162 159 168 164 159 153 150 156 160 170 173 168 171 157 123 123 145 166 151 136 110 109 100 98 75 44 19 343 351 344 335 327 326 339 48 151 129 134 137 117 99
162 160 159 161 165 163 157 150 149 157 165 174 180 171 177 176 183 179 195 195 160 126 119 116 117 101 125 127 66 113 349 348 326 319 328 340 350 114 119 129 136 122 117
162 161 163 163 165 165 158 152 152 158 166 174 178 175 178 181 184 203 219 148 98 90 119 129 121 111 48 38 65 36 35 43 327 329 2 349 2 36 96 133 138 129 110
163 163 164 163 163 165 160 157 152 159 168 174 168 163 166 174 163 145 180 110 85 117 107 119 115 103 75 35 39 49 15 41 43 20 48 352 345 48 63 103 146 149 152
163 162 161 162 163 162 159 158 156 161 168 171 175 170 167 166 146 139 133 105 86 73 93 107 106 95 80 57 21 17 46 66 27 39 49 36 2 11 64 141 232 141 154
159 157 157 159 162 163 163 162 159 161 169 176 177 162 162 167 160 163 136 127 129 116 106 106 109 92 81 75 53 291 338 72 45 13 51 86 52 7 350 12 18 90 102
152 148 150 153 160 164 166 165 163 166 171 172 169 165 163 165 168 168 155 148 158 152 137 113 99 116 103 101 129 332 7 33 66 46 22 15 37 70 330 357 10 95 124
139 142 144 145 151 155 159 160 165 168 170 168 166 164 163 161 161 156 159 159 154 150 136 136 145 112 4 4 63 62 336 355 21 47 66 24 21 18 353 15 330 193 146
133 131 128 134 138 141 149 155 164 164 161 159 161 159 161 157 152 148 144 139 137 138 150 153 153 148 17 339 343 73 58 347 356 5 45 42 16 3 306 301 292 169 151
134 127 124 128 138 141 151 155 153 153 153 150 154 155 153 144 143 149 150 148 153 153 143 139 98 158 182 2 352 316 214 254 334 358 35 83 78 66 53 29 30 37 68
144 134 128 130 140 144 150 146 146 145 140 145 150 148 149 145 150 156 152 147 148 127 117 137 87 9 16 40 21 356 340 359 347 310 293 153 106 109 107 93 82 75 68
150 143 140 141 145 148 148 150 146 143 145 148 148 149 152 154 160 166 155 156 152 138 135 127 114 82 48 38 24 4 326 356 346 337 305 282 27 104 114 122 120 95 65
154 152 154 150 155 150 148 154 151 150 151 153 156 157 159 162 162 162 160 162 160 154 159 178 144 123 62 26 7 336 264 246 294 294 327 46 23 8 23 120 99 82 51
147 150 156 151 144 140 141 149 152 154 159 164 166 166 163 164 166 167 167 166 162 161 173 179 171 145 128 329 336 315 247 206 241 259 36 111 139 12 29 138 132 111 90
135 141 147 128 129 127 132 151 159 160 168 168 167 164 162 167 170 169 166 165 169 176 177 180 181 177 175 193 171 297 257 214 203 163 104 76 78 79 96 166 154 142 119
125 121 120 121 123 128 136 150 157 158 154 156 156 154 155 166 164 161 160 162 181 186 196 185 180 177 167 171 172 182 269 308 331 75 70 73 86 108 117 136 151 181 179
130 125 110 108 119 134 142 146 142 137 132 138 144 150 157 178 170 159 163 172 186 191 202 188 175 167 155 155 168 173 243 329 335 340 70 96 121 116 132 177 209 179 164
125 135 131 119 127 139 152 149 139 133 135 136 143 153 163 161 161 171 173 181 193 203 199 194 187 182 171 159 164 173 187 179 227 34 73 118 166 169 180 209 208 178 193
139 141 140 143 142 140 146 144 141 143 146 150 153 157 164 171 171 181 185 195 200 206 203 197 195 188 172 161 160 174 178 175 187 226 174 182 199 214 216 186 201 211 223
138 127 132 152 147 139 144 150 145 150 154 159 166 175 176 173 173 176 187 203 70 198 210 211 200 193 188 193 182 189 197 202 190 204 200 191 179 188 194 200 204 204 210
156 151 162 151 138 133 138 140 144 152 162 174 180 188 184 169 176 165 127 57 84 87 97 137 179 155 158 164 163 157 152 146 150 179 214 214 211 208 206 196 192 205 211